Flag for U.S.A. Weather past 2 weeks in Simi Valley, California, U.S.A.

Now
59 °F

Overcast.


Feels Like: 58 °F
Forecast: 55 / 71 °F
Wind: 6 mph from South

Location: Van Nuys Airport


UV Index: 0 (Low)

Visibility: 10 mi


Pressure: 29.85 "Hg

Humidity: 75%

Dew point: 51 °F

Location of Simi ValleyLocation

Historic Weather in Simi Valley

°F

Simi Valley temperature yesterday

Maximum temperature yesterday: 73 °F (at 3:51 PM)
Minimum temperature yesterday: 55 °F (at 2:51 AM)
Average temperature yesterday: 62 °F

Past Weeks' High & Low Weather Summary

 TemperatureHumidityPressure
High90 °F (Apr 9, 3:51 PM)88% (Apr 16, 2:03 AM)30.13 "Hg (Apr 16, 2:03 AM)
Low44 °F (Apr 3, 6:51 AM)5% (Apr 9, 12:51 PM)29.75 "Hg (Apr 16, 4:51 PM)
Average65 °F46%29.95 "Hg
* Reported Apr 3 3:51 AM — Apr 18 3:51 AM, Simi Valley, Weather by CustomWeather, © 2014

Note: Actual official high and low records may vary slightly from our data, if they occured in-between our weather recording intervals... More about our weather records

Advertising

Historic Weather Conditions — Data for Previous 24 hours

 ConditionsComfort  
Time TempWeatherWind HumidityBarometerVisibility
3:51 AM
Apr 18
59 °FOvercast.5 mph75%29.85 "Hg10 mi
2:51 AM60 °FOvercast.6 mph75%29.85 "Hg10 mi
1:51 AM59 °FPassing clouds.3 mph78%29.86 "Hg10 mi
12:51 AM59 °FMostly cloudy.No wind78%29.88 "Hg9 mi
11:51 PM
Apr 17
59 °FOvercast.No wind81%29.87 "Hg8 mi
10:51 PM59 °FOvercast.5 mph78%29.90 "Hg8 mi
9:51 PM60 °FOvercast.9 mph75%29.90 "Hg9 mi
8:51 PM59 °FOvercast.5 mph78%29.86 "Hg10 mi
7:51 PM60 °FPassing clouds.10 mph75%29.84 "Hg10 mi
6:51 PM62 °FSunny.9 mph70%29.82 "Hg10 mi
5:51 PM67 °FSunny.8 mph59%29.82 "Hg10 mi
4:51 PM69 °FOvercast.8 mph55%29.81 "Hg10 mi
3:51 PM73 °FSunny.7 mph48%29.82 "Hg10 mi
2:51 PM72 °FPartly sunny.7 mph49%29.83 "Hg10 mi
1:51 PM71 °FPartly sunny.5 mph53%29.85 "Hg10 mi
12:51 PM69 °FPartly sunny.5 mph55%29.85 "Hg10 mi
11:51 AM67 °FSunny.8 mph59%29.88 "Hg6 mi
10:51 AM65 °FBroken clouds.7 mph61%29.88 "Hg6 mi
9:51 AM64 °FBroken clouds.6 mph65%29.88 "Hg8 mi
8:51 AM61 °FBroken clouds.7 mph72%29.87 "Hg5 mi
7:51 AM59 °FBroken clouds.5 mph78%29.85 "Hg4 mi
7:01 AM57 °FPartly cloudy.3 mph82%29.87 "Hg4 mi
6:51 AM57 °FOvercast.No wind81%29.85 "Hg4 mi
5:51 AM57 °FOvercast.5 mph83%29.84 "Hg6 mi
Weather by CustomWeather, © 2014

See weather overview